Location: Carnoy
(49.9849°N, 2.7558°E)
Time: 21:13:24
(UTC+00:00)

Cosmos 2341 Rocket - Pass Details

Date: 24 January 2020
Orbit: 967 x 1005 km, 82.9° (Epoch: 17 February)

Event Time Altitude Azimuth Distance (km) Brightness Sun altitude
Rises 17:29:33 0° 176° (S) 3,717 7.2 -9.7°
Reaches altitude 10° 17:32:06 10° 173° (S) 2,768 6.5 -10.1°
Maximum altitude 17:38:22 64° 94° (E) 1,100 4.1 -11.1°
Drops below altitude 10° 17:44:37 10° 15° (NNE) 2,765 6.1 -12.0°
Sets 17:47:10 0° 12° (NNE) 3,713 6.8 -12.4°
